When you browse on this site, cookies collect data to enhance your experience and personalize the content and advertising you see.
Visit our Privacy Policy to learn more. By continuing to use the site, you agree to this use of cookies and data.

Hourly Weather Tarnów

Today, 5 August, Wednesday

Time Temperature Precipitation Wind Pressure Humidity
00:00 +17°C° 0 mm 3 mps 742 mmHg 91%
01:00 +17°C° 0 mm 2 mps 742 mmHg 93%
02:00 +17°C° 0 mm 2 mps 743 mmHg 91%
03:00 +17°C° 0 mm 2 mps 743 mmHg 89%
04:00 +17°C° 0 mm 3 mps 743 mmHg 87%
05:00 +17°C° 0 mm 3 mps 744 mmHg 86%
06:00 +17°C° 0 mm 3 mps 744 mmHg 84%
07:00 +18°C° 0 mm 3 mps 744 mmHg 83%
08:00 +18°C° 0 mm 3 mps 744 mmHg 82%
09:00 +18°C° 0 mm 3 mps 745 mmHg 80%
10:00 +18°C° 0 mm 3 mps 745 mmHg 79%
11:00 +19°C° 0 mm 3 mps 745 mmHg 76%
12:00 +20°C° 0 mm 3 mps 745 mmHg 72%
13:00 +21°C° 0 mm 3 mps 745 mmHg 69%
14:00 +21°C° 0 mm 3 mps 745 mmHg 68%
15:00 +22°C° 0 mm 3 mps 745 mmHg 68%
16:00 +22°C° 0 mm 3 mps 745 mmHg 67%
17:00 +22°C° 0 mm 3 mps 745 mmHg 70%
18:00 +21°C° 0 mm 3 mps 745 mmHg 73%
19:00 +20°C° 0 mm 2 mps 745 mmHg 75%
20:00 +20°C° 0 mm 2 mps 746 mmHg 76%
21:00 +19°C° 0 mm 2 mps 746 mmHg 77%
22:00 +18°C° 0 mm 2 mps 746 mmHg 79%
23:00 +18°C° 0 mm 2 mps 746 mmHg 80%

Tomorrow, 6 August, Thursday

Time Temperature Precipitation Wind Pressure Humidity
00:00 +17°C° 0 mm 2 mps 746 mmHg 81%
01:00 +17°C° 0 mm 2 mps 746 mmHg 82%
02:00 +17°C° 0 mm 2 mps 746 mmHg 85%
03:00 +16°C° 0 mm 2 mps 746 mmHg 88%
04:00 +16°C° 0 mm 2 mps 746 mmHg 92%
05:00 +17°C° 0 mm 2 mps 746 mmHg 91%
06:00 +18°C° 0 mm 2 mps 747 mmHg 90%
07:00 +19°C° 0 mm 2 mps 747 mmHg 89%
08:00 +20°C° 0 mm 2 mps 747 mmHg 85%
09:00 +21°C° 0 mm 3 mps 747 mmHg 82%
10:00 +22°C° 0 mm 3 mps 747 mmHg 79%
11:00 +25°C° 0 mm 3 mps 747 mmHg 73%
12:00 +27°C° 0 mm 3 mps 747 mmHg 66%
13:00 +28°C° 0 mm 3 mps 747 mmHg 60%
14:00 +28°C° 0 mm 3 mps 747 mmHg 59%
15:00 +29°C° 0 mm 4 mps 747 mmHg 58%
16:00 +29°C° 0 mm 4 mps 747 mmHg 57%
17:00 +27°C° 0 mm 4 mps 747 mmHg 64%
18:00 +26°C° 0 mm 3 mps 747 mmHg 70%
19:00 +24°C° 0 mm 2 mps 747 mmHg 77%
20:00 +23°C° 0 mm 2 mps 747 mmHg 81%
21:00 +21°C° 0 mm 2 mps 748 mmHg 84%
22:00 +20°C° 0 mm 2 mps 748 mmHg 87%
23:00 +19°C° 0 mm 2 mps 748 mmHg 89%

Day after tomorrow, 7 August, Friday

Time Temperature Precipitation Wind Pressure Humidity
00:00 +19°C° 0 mm 2 mps 748 mmHg 90%
01:00 +20°C° 0 mm 1 mps 748 mmHg 91%
02:00 +19°C° 0 mm 1 mps 748 mmHg 92%
03:00 +19°C° 0 mm 1 mps 748 mmHg 92%
04:00 +19°C° 0 mm 1 mps 748 mmHg 92%
05:00 +19°C° 0 mm 2 mps 748 mmHg 88%
06:00 +20°C° 0 mm 2 mps 749 mmHg 83%
07:00 +23°C° 0 mm 2 mps 749 mmHg 78%
08:00 +25°C° 0 mm 2 mps 749 mmHg 71%
09:00 +26°C° 0 mm 3 mps 749 mmHg 64%
10:00 +28°C° 0 mm 4 mps 749 mmHg 57%
11:00 +29°C° 0 mm 4 mps 749 mmHg 55%
12:00 +29°C° 0 mm 4 mps 749 mmHg 52%
13:00 +30°C° 0 mm 4 mps 748 mmHg 50%
14:00 +30°C° 0 mm 4 mps 748 mmHg 52%
15:00 +30°C° 0 mm 4 mps 748 mmHg 53%
16:00 +29°C° 0 mm 3 mps 748 mmHg 55%
17:00 +28°C° 0 mm 3 mps 748 mmHg 62%
18:00 +26°C° 0 mm 2 mps 747 mmHg 69%
19:00 +24°C° 0 mm 2 mps 747 mmHg 76%
20:00 +23°C° 0 mm 2 mps 748 mmHg 80%
21:00 +21°C° 0 mm 2 mps 748 mmHg 84%
22:00 +20°C° 0 mm 2 mps 748 mmHg 88%
23:00 +21°C° 0 mm 1 mps 748 mmHg 90%

8 August, Saturday

Time Temperature Precipitation Wind Pressure Humidity
00:00 +20°C° 0 mm 1 mps 747 mmHg 91%
01:00 +20°C° 0 mm 1 mps 747 mmHg 93%
02:00 +20°C° 0 mm 1 mps 747 mmHg 93%
03:00 +19°C° 0 mm 1 mps 747 mmHg 94%
04:00 +19°C° 0 mm 1 mps 747 mmHg 95%
05:00 +20°C° 0 mm 1 mps 747 mmHg 91%
06:00 +21°C° 0 mm 1 mps 747 mmHg 87%
07:00 +23°C° 0 mm 2 mps 747 mmHg 82%
08:00 +24°C° 0 mm 2 mps 747 mmHg 76%
09:00 +26°C° 0 mm 2 mps 747 mmHg 71%
10:00 +27°C° 0 mm 3 mps 746 mmHg 65%
11:00 +28°C° 0.3 mm 3 mps 746 mmHg 63%
12:00 +29°C° 0.3 mm 3 mps 746 mmHg 60%
13:00 +29°C° 0.3 mm 3 mps 745 mmHg 58%
14:00 +29°C° 0.5 mm 3 mps 745 mmHg 61%
15:00 +29°C° 0.5 mm 3 mps 745 mmHg 63%
16:00 +28°C° 0.5 mm 4 mps 744 mmHg 65%
17:00 +27°C° 0.2 mm 3 mps 744 mmHg 72%
18:00 +25°C° 0.2 mm 3 mps 744 mmHg 79%
19:00 +23°C° 0.2 mm 2 mps 744 mmHg 86%
20:00 +23°C° 0 mm 2 mps 744 mmHg 88%
21:00 +21°C° 0 mm 2 mps 744 mmHg 90%
22:00 +20°C° 0 mm 2 mps 744 mmHg 93%
23:00 +20°C° 0 mm 2 mps 744 mmHg 93%

9 August, Sunday

Time Temperature Precipitation Wind Pressure Humidity
00:00 +20°C° 0 mm 1 mps 744 mmHg 94%
01:00 +20°C° 0 mm 1 mps 744 mmHg 94%
02:00 +19°C° 0 mm 1 mps 744 mmHg 94%
03:00 +19°C° 0 mm 1 mps 744 mmHg 95%
04:00 +19°C° 0 mm 1 mps 743 mmHg 95%
05:00 +20°C° 0 mm 1 mps 744 mmHg 91%
06:00 +21°C° 0 mm 1 mps 744 mmHg 87%
07:00 +21°C° 0 mm 2 mps 744 mmHg 82%
08:00 +24°C° 0 mm 2 mps 744 mmHg 76%
09:00 +25°C° 0 mm 2 mps 744 mmHg 69%
10:00 +27°C° 0 mm 2 mps 744 mmHg 62%
11:00 +27°C° 0.1 mm 2 mps 743 mmHg 59%
12:00 +28°C° 0.1 mm 2 mps 743 mmHg 57%
13:00 +29°C° 0.1 mm 2 mps 743 mmHg 54%
14:00 +28°C° 0.1 mm 2 mps 742 mmHg 55%
15:00 +28°C° 0.1 mm 3 mps 742 mmHg 57%
16:00 +28°C° 0.1 mm 3 mps 742 mmHg 59%
17:00 +26°C° 0.2 mm 2 mps 742 mmHg 65%
18:00 +24°C° 0.2 mm 2 mps 742 mmHg 71%
19:00 +23°C° 0.2 mm 1 mps 742 mmHg 78%
20:00 +22°C° 0.1 mm 1 mps 742 mmHg 81%
21:00 +21°C° 0.1 mm 1 mps 742 mmHg 84%
22:00 +20°C° 0.1 mm 1 mps 742 mmHg 87%
23:00 +20°C° 0.1 mm 1 mps 742 mmHg 88%

10 August, Monday

Time Temperature Precipitation Wind Pressure Humidity
00:00 +19°C° 0.1 mm 1 mps 742 mmHg 89%
01:00 +19°C° 0.1 mm 1 mps 742 mmHg 90%
02:00 +19°C° 0 mm 1 mps 742 mmHg 91%
03:00 +16°C° 0 mm 0 mps 742 mmHg 92%
04:00 +16°C° 0 mm 0 mps 742 mmHg 93%
05:00 +19°C° 0 mm 1 mps 742 mmHg 90%
06:00 +20°C° 0 mm 1 mps 742 mmHg 86%
07:00 +22°C° 0 mm 1 mps 742 mmHg 83%
08:00 +23°C° 0.6 mm 2 mps 742 mmHg 78%
09:00 +25°C° 0.6 mm 2 mps 742 mmHg 73%
10:00 +26°C° 0.6 mm 3 mps 742 mmHg 68%
11:00 +27°C° 1 mm 3 mps 742 mmHg 64%
12:00 +28°C° 1 mm 3 mps 742 mmHg 60%
13:00 +28°C° 1 mm 3 mps 742 mmHg 56%
14:00 +28°C° 1.1 mm 3 mps 742 mmHg 58%
15:00 +28°C° 1.1 mm 3 mps 741 mmHg 60%
16:00 +27°C° 1.1 mm 3 mps 741 mmHg 62%
17:00 +26°C° 0.2 mm 2 mps 741 mmHg 69%
18:00 +24°C° 0.2 mm 2 mps 741 mmHg 75%
19:00 +22°C° 0.2 mm 1 mps 742 mmHg 82%
20:00 +22°C° 0 mm 1 mps 742 mmHg 84%
21:00 +21°C° 0 mm 1 mps 742 mmHg 86%
22:00 +18°C° 0 mm 0 mps 742 mmHg 88%
23:00 +18°C° 0 mm 0 mps 742 mmHg 89%
Show more